Simultaneous Nadir Overpasses (SNOs) Predictions

Prediction of SNOs between AQUA and NOAA-19 Satellite Orbit:

Table of predicted SNOs for the next 14.0 days since TLE Epoch: 2/13/2025
Index Date (AQUA) Time (AQUA) Lat,Lon (AQUA) SZA (AQUA ) Date (NOAA-19) Time (NOAA-19) Lat,Lon (NOAA-19) SZA (NOAA-19 ) Distance(km) Time Diff (sec)
1 02/15/2025 05:02:31 -75.65, -72.80 91.84 02/15/2025 05:02:32 -75.65, -72.83 91.85 1.23 1
2 02/17/2025 07:10:52 75.64, 75.21 87.42 02/17/2025 07:09:54 75.61, 75.28 87.40 3.06 58
3 02/17/2025 08:00:11 -75.67,-117.20 92.57 02/17/2025 08:00:55 -75.69,-117.22 92.54 3.03 44
4 02/19/2025 10:08:30 75.62, 30.90 86.65 02/19/2025 10:08:18 75.63, 30.76 86.66 3.95 12
5 02/19/2025 10:58:02 -76.28,-163.49 92.69 02/19/2025 10:59:06 -76.27,-159.73 92.71 99.17 64
6 02/21/2025 12:16:47 -75.60, 178.95 94.13 02/21/2025 12:15:47 -75.63, 178.94 94.10 3.31 60
7 02/21/2025 13:06:08 75.68, -13.61 85.94 02/21/2025 13:06:41 75.67, -13.64 85.94 0.75 33
8 02/23/2025 15:14:24 -75.67, 134.40 94.84 02/23/2025 15:14:10 -75.65, 134.45 94.86 2.68 14
9 02/23/2025 16:03:49 75.94, -58.78 85.44 02/23/2025 16:04:58 75.98, -57.12 85.48 45.11 69
10 02/25/2025 17:22:38 75.59, -77.39 84.32 02/25/2025 17:21:33 75.61, -77.45 84.34 3.31 65



Historial Predications of SNOs between AQUA and NOAA-19
